Location: Unspecified
(0.0000°N, 0.0000°E)
Time: 03:50:45
(UTC+02:00)

Haruka - Visible Passes

Search period start: 27 July 2016 00:00
Search period end: 06 August 2016 00:00
Orbit: 535 x 21227 km, 31.3° (Epoch: 25 July)

Date Brightness Start Highest point End Pass type
(mag) Time Alt. Az. Time Alt. Az. Time Alt. Az.
27 Jul 5.8 18:01:41 10° WNW 20:40:42 57° NNE 20:50:12 11° E visible
28 Jul 4.6 21:07:54 10° NW 21:51:30 82° NNE 21:54:43 44° ESE visible
29 Jul 4.8 22:40:11 10° WNW 22:59:15 51° SW 22:59:15 51° SW visible
30 Jul 6.5 05:39:32 13° S 05:48:25 23° SE 06:36:30 10° E visible
31 Jul 6.4 00:01:09 10° W 00:03:47 14° WSW 00:03:47 14° WSW visible
31 Jul 6.5 06:44:20 10° SSW 06:58:45 43° SE 10:32:23 10° ENE visible
02 Aug 5.4 19:29:10 10° NW 20:53:56 73° NNE 21:01:15 16° ESE visible
03 Aug 4.5 21:29:42 10° WNW 22:03:13 70° SW 22:05:46 46° SSE visible
04 Aug 6.7 04:45:56 12° SSE 04:50:33 14° SE 05:02:55 10° ESE visible
04 Aug 5.5 22:57:33 10° WNW 23:10:19 29° SW 23:10:19 29° SW visible
05 Aug 6.3 05:50:27 16° S 06:00:17 33° SE 07:55:49 10° ENE visible
